www.pogodaiklimat.ru

Погода и климат >> Архив погоды >> Россия >> Камчатский край >> Остров Беринга


ПОГОДА на Острове Беринга

  • Прогноз погоды на Острове Беринга
  • Монитор погоды на Острове Беринга
  • Климат города

АРХИВ ПОГОДЫ на Острове Беринга

Время (UTC), дата Ветер
(напр.,м/с)
 
Видим.   Явления Облачность Т
(С)
Тd
(С)
f
(%)
Тe
(С)
Тes
(С)
Комфортность P
(гПа)
Po
(гПа)
Тmin
(С)
Tmax
(С)
R
(мм)
R24
(мм)
S
(см)
21 12.10 З 12-16
{17}
20 км 8/8 600 м
[Cu Sc]
+4.0 -4.0 56 -3 -3 997.1 995.0 +3.8
00 13.10 З 7-10
{16}
20 км 8/8 600 м
[Cu Sc]
+5.1 -2.5 58 0 0 997.6 995.5
03 13.10 ЮЗ 7-10
{11}
20 км 6/6 600 м
[Cu hum]
+5.8 -1.9 58 +1 +1 997.3 995.1
06 13.10 ЮЗ 6
{10}
20 км 3/3 600 м
[Cu hum]
+5.3 -1.2 63 +1 +1 997.3 995.1
09 13.10 ЮЗ 6 20 км 8/8 600 м
[Sc]
+5.6 +1.7 76 +1 +1 997.0 994.8 +6.0
12 13.10 ЮЗ 5
{10}
20 км 6/6 600 м
[Sc]
+5.9 +3.6 85 +2 +2 996.4 994.3
15 13.10 СВ 2 20 км 9/9 600 м
[Sc]
+3.3 +0.3 81 0 0 996.9 994.7
18 13.10 С 1 20 км 10/10 600 м
[Sc]
+2.7 -1.3 75 +1 +1 998.2 996.0
21 13.10 С 2 20 км {ливн. осадки} 9/9 600 м
[Sc]
+2.1 -1.2 79 -1 -1 999.8 997.6 +1.5 0.3
00 14.10 Ю 3 20 км {ливн. осадки} 9/9 600 м
[Sc]
+4.2 -1.0 69 +1 +1 1000.5 998.3
03 14.10 З 2
{10}
20 км {ливн. осадки} 6/3 600 м
[Sc Ac cuf]
+3.5 -1.0 72 +1 +2 1001.1 998.9
06 14.10 З 8-12
{12}
20 км {ливн. осадки} 8/8 600 м
[Sc]
+3.2 -1.3 72 -3 -3 1002.4 1000.2
09 14.10 З 7-10
{18}
20 км 6/6 600 м
[Sc]
+4.7 -5.1 49 -0 -0 1003.2 1001.0 +4.9 0.3
12 14.10 З 7-10
{11}
20 км 6/6 600 м
[Sc]
+4.7 -1.3 65 -1 -1 1003.7 1001.5
15 14.10 З 6
{11}
20 км 4/4 600 м
[Sc]
+4.4 -2.5 61 -1 -1 1003.8 1001.6
18 14.10 СЗ 7
{11}
20 км 3/3 600 м
[Cu hum]
+4.1 -0.8 70 -1 -1 1004.5 1002.3
21 14.10 З 6
{10}
20 км 4/4 600 м
[Cu med, cong]
+3.4 -1.4 71 -2 -2 1005.8 1003.6 +2.6
00 15.10 З 6
{16}
20 км {ливн. осадки} 4/4 600 м
[Cb cap]
+5.0 -3.3 55 0 +1 1006.2 1004.0
03 15.10 З 5
{13}
20 км 3/3 600 м
[Cu med, cong]
+5.1 -1.2 64 +1 +2 1005.6 1003.4
06 15.10 З 5
{10}
20 км 5/5 600 м
[Cu med, cong]
+4.6 -3.9 54 0 0 1006.0 1003.8
09 15.10 ЮЗ 6 20 км 4/4 600 м
[Sc diur, vesp]
+4.8 -1.4 64 0 0 1006.4 1004.2 +5.5 0.0
12 15.10 З 8
{11}
20 км 3/3 600 м
[Sc]
+5.3 -0.4 67 -0 -0 1006.7 1004.5
15 15.10 ЮЗ 6 20 км 5/5 600 м
[Sc]
+4.7 -0.3 70 -0 -0 1006.5 1004.3
18 15.10 СВ 3 20 км 3/3 600 м
[Sc]
+0.3 -3.5 76 -4 -4 1006.0 1003.8
21 15.10 ЮВ 2 20 км 5/5 600 м
[Cu Sc]
+4.5 -1.1 67 +2 +2 1005.5 1003.3 +0.3
00 16.10 СВ 2
{11}
20 км 3/3 600 м
[Cu hum]
+5.5 +0.5 70 +3 +6 1004.4 1002.2
03 16.10 СВ 4 20 км 3/3 600 м
[Cu hum]
+5.4 +0.8 72 +2 +3 1002.7 1000.5
06 16.10 СВ 2 20 км 6/6 600 м
[Cu Sc]
+2.2 -0.9 80 -1 -1 1002.2 1000.0
09 16.10 СВ 2 20 км 6/6 600 м
[Sc]
+1.6 -1.7 79 -2 -2 1002.4 1000.2 +6.4
12 16.10 С 5 20 км 6/6 600 м
[Sc]
+1.3 -2.1 78 -4 -4 1002.1 999.9
15 16.10 СЗ 9-11
{11}
20 км 4/4 600 м
[Sc]
+2.4 -1.7 74 -4 -4 1002.3 1000.1
18 16.10 СЗ 10-14
{14}
20 км 8/8 600 м
[Sc]
+2.0 0.0 87 -6 -6 1003.5 1001.3
21 16.10 С 2
{14}
20 км {ливн. осадки} 9/9 600 м
[Sc]
+3.0 -0.5 78 0 0 1004.6 1002.4 +0.8 0.1
00 17.10 З 5 20 км {ливн. осадки} 6/4 600 м
[Cu med, cong Ci fib]
+4.2 -2.5 62 -0 +1 1005.2 1003.0
03 17.10 СЗ 5 20 км 4/3 600 м
[Cu med, cong Ci fib]
+4.3 -0.5 71 -0 +1 1005.7 1003.5
06 17.10 З 3
{10}
20 км 8/8 600 м
[Cu Sc]
+3.2 -1.5 71 -1 -1 1007.3 1005.0
09 17.10 СВ 2 20 км 3/3 600 м
[Sc]
+0.9 -2.5 78 -2 -2 1009.0 1006.7 +5.1
12 17.10 СВ 1 20 км 1/1 600 м
[Sc]
+1.4 -2.4 76 -0 -0 1010.3 1008.1
15 17.10 СВ 2 20 км 3/3 600 м
[Sc]
+0.8 -1.6 84 -3 -3 1011.4 1009.1
18 17.10 С 3 20 км 3/3 600 м
[Sc]
+1.1 -0.7 88 -3 -3 1013.0 1010.7
21 17.10 ЮВ 2 20 км {ливн. осадки} 6/4 600 м
[Cb cap Ci]
+0.8 -1.3 86 -3 -3 1015.3 1013.0 -0.3 0.1
00 18.10 СВ 1 20 км {ливн. осадки} 5/4 600 м
[Cu med, cong Ci fib]
+3.2 -0.2 78 +2 +4 1017.0 1014.8
03 18.10 Ю 2
{13}
20 км {ливн. осадки} 3/3 600 м
[Cu hum]
+3.8 -0.9 71 +1 +3 1018.2 1016.0
06 18.10 Ю 2 20 км {ливн. осадки} 3/3 600 м
[Cu hum]
+3.1 -1.7 71 0 0 1020.1 1017.9
09 18.10 ЮВ 3 20 км 3/3 600 м
[Cu hum]
+2.5 -2.0 72 -1 -1 1021.2 1018.9 +4.5 0.1
12 18.10 ЮВ 3 20 км 3/3 600 м
[Cu hum]
+0.9 -7.5 53 -3 -3 1021.4 1019.2
15 18.10 В 5 20 км 4/4 600 м
[Cu hum]
+2.6 -3.8 63 -2 -2 1020.3 1018.1
18 18.10 СВ 4 20 км 4/4 600 м
[Cu hum]
+2.0 -2.0 75 -3 -3 1017.6 1015.4
21 18.10 В 8-12
{12}
20 км 10/3 600 м
[Cu hum As op]
+4.0 -0.4 73 -2 -2 1015.7 1013.5 +0.1
00 19.10 СВ 11-16
{17}
20 км 10/10 600 м
[Sc]
+4.9 -0.3 69 -2 -2 1012.3 1010.1
03 19.10 СВ 13-19
{19}
20 км 10/10 600 м
[Sc]
+4.9 -0.4 69 -2 -2 1008.1 1005.9
06 19.10 СВ 10-18
{21}
20 км 10/10 600 м
[Sc]
+4.5 +1.4 80 -2 -2 1005.2 1003.0
09 19.10 СВ 14-22
{23}
10 км слабый ливневой дождь 10/10 300 м
[Cb cap]
+4.1 +2.3 88 -4 -4 1003.9 1001.7 +5.0 2
12 19.10 СВ 16-24
{24}
10 км слабый ливневой дождь 10/10 300 м
[Sc]
+4.5 +2.2 85 -4 -4 1003.5 1001.3
15 19.10 С 17-23
{24}
20 км {ливн. осадки} 10/10 600 м
[Sc]
+4.0 +2.0 87 -4 -4 1004.4 1002.2

 

Местоположение метеостанции Остров Беринга (Камчатский край, Россия): широта 55.20 долгота 165.90 высота над уровнем моря 18 м.

В архиве по умолчанию представлена погода на Острове Беринга за последнюю неделю. Архивные данные за месяц целиком и за предыдущие месяцы, начиная с января 2011 года, Вы можете получить, выбрав интересующий диапазон дат из раскрывающегося списка и нажав кнопку "Ввод!".

Внимание! Время в таблицах - всемирное. Для получения местного времени необходимо прибавить поправку, которая на Острове Беринга равна 12 ч.

Смотрите также архив погоды в соседних городах и на ближайших метеорологических станциях:

Погода на Мысе Африка (Камчатский край, Россия) (196 км)
Погода в Усть-Камчатске (Камчатский край, Россия) (230 км)
Погода на Мысе Озерном (Камчатский край, Россия) (319 км)
Погода в Ключах (Камчатский край, Россия) (343 км)
Погода в Козыревске (Камчатский край, Россия) (394 км)
Погода в Семячике (Камчатский край, Россия) (404 км)
Погода в Долиновке (Камчатский край, Россия) (438 км)
Погода в Эссо (Камчатский край, Россия) (460 км)
Погода в Мильково (Камчатский край, Россия) (476 км)
Погода в Оссоре (Камчатский край, Россия) (481 км)

Пояснения к столбцам:

Ветер - указаны скорость ветра в м/с - средняя за 10 мин, порывы в срок и между сроками (в фигурных скобках) и направление, откуда дует ветер: С - северный, СВ - северо-восточный, В - восточный, ЮВ - юго-восточный, Ю - южный, ЮЗ - юго-западный, З - западный, СЗ - северо-западный.
Видимость - горизонтальная дальность видимости в метрах или километрах. При видимости от 1 до 10 км при отсутствии осадков обычно наблюдается дымка, при ухудшении видимости до 1 км и менее - туман. В сухую погоду видимость может ухудшаться дымом, пылью или мглою.
Явления - указаны атмосферные явления, наблюдавшиеся в срок или в последний час перед сроком; фигурными скобками обозначены явления, наблюдавшиеся между сроками (за 1-3 часа до срока); квадратными скобками обозначены град или гололедные отложения с указанием их диаметра в мм.
Облачность - указаны через наклонную черту общая и нижняя облачность в баллах и высота нижней границы облаков в метрах; квадратными скобками обозначены формы облаков: Ci - перистые, Cs - перисто-слоистые, Cc - перисто-кучевые, Ac - высококучевые, As - высокослоистые, Sc - слоисто-кучевые, Ns - слоисто-дождевые, Cu - кучевые, Cb - кучево-дождевые. Подробнее классификацию облаков см. в Атласе облаков (PDF).
T - Температура воздуха - температура, измеренная на высоте 2 м над землей.
Td - Температура точки росы - температура, при понижении до которой содержащийся в воздухе водяной пар достигнет насыщения.
f - Относительная влажность воздуха - влажноcть воздуха, измеренная на высоте 2 м над землей.
Te - Эффективная температура - температура, которую ощущает одетый по сезону человек в тени. Характеристика душности погоды. При расчете учитывается влияние влажности воздуха и скорости ветра на теплоощущения человека.
Tes - Эффективная температура на солнце - температура, которую ощущает человек, с поправкой на солнечный нагрев. Характеристика знойности погоды. Зависит от высоты солнца над горизонтом, облачности и скорости ветра. Ночью, в пасмурную погоду, а также при ветре 12 м/с и более поправка равна нулю.
P - Атмосферное давление - приведенное к уровню моря атмосферное давление.
Po - Атмосферное давление - измеренное на уровне метеостанции атмосферное давление.
Tmin - Минимальная температура - минимум температуры воздуха на высоте 2 м над землей.
Tmax - Максимальная температура - максимум температуры воздуха на высоте 2 м над землей.
R - Количество осадков - Количество выпавших осадков за период времени, мм. При наведении курсора мыши на число - период времени, за который выпало указанное количество осадков.
R24 - Количество осадков - Количество выпавших осадков за 24 часа, мм.
S - Снежный покров - Высота снежного покрова, см. При наведении курсора мыши на число - состояние снежного покрова и степень покрытия местности в баллах.